Weather History for KPYM - October, 2012

Change the Weather History Date:

Saturday, October 27, 2012

  Actual Average Record
Temperature  
Mean Temperature 53 °F -  
Max Temperature 64 °F 57 °F 83 °F (1963)
Min Temperature 42 °F 39 °F 26 °F (1976)
Degree Days  
Heating Degree Days 12    
Growing Degree Days 3 (Base 50)    
Moisture  
Dew Point 47 °F    
Average Humidity 84    
Maximum Humidity 94    
Minimum Humidity 63    
Precipitation  
Precipitation 0.00 in - - ()
Sea Level Pressure  
Sea Level Pressure 30.05 in    
Wind  
Wind Speed 2 mph (NE)    
Max Wind Speed 8 mph    
Max Gust Speed -    
Visibility 9 miles    
Events      
Averages and records for this station are not official NWS values.
T = Trace of Precipitation, MM = Missing Value Source: NWS Daily Summary

Daily Weather History Graph

Daily Weather History Graph

Search for Another Location

Airport or City:

Trip Planner

Search our weather history database for the weather conditions in past years. The results will help you decide how hot, cold, wet, or windy it might be!

Date:

Astronomy

Oct. 27, 2012 Rise Set
Actual Time 7:09 AM EDT 5:42 PM EDT
Civil Twilight 6:41 AM EDT 6:11 PM EDT
Nautical Twilight 6:08 AM EDT 6:44 PM EDT
Astronomical Twilight 5:36 AM EDT 7:16 PM EDT
Moon 4:28 PM EDT (10/27) 5:00 AM EDT (10/27)
Length of Visible Light 11h 30m
Length of Day
10h 33m
Waxing Gibbous, 96% of the Moon is Illuminated
Oct 27
Waxing Gibbous
Oct 29
Full
Nov 6
Last Quarter
Nov 13
New
Nov 20
First Quarter

Hourly Weather History & Observations

Time (EDT) Temp. Dew Point Humidity Pressure Visibility Wind Dir Wind Speed Gust Speed Precip Events Conditions
12:52 AM 46.9 °F 43.0 °F 86% 30.13 in 10.0 mi Calm Calm - N/A   Clear
1:52 AM 46.0 °F 42.1 °F 86% 30.12 in 10.0 mi Calm Calm - N/A   Clear
2:52 AM 44.1 °F 42.1 °F 93% 30.11 in 10.0 mi Calm Calm - N/A   Clear
3:52 AM 44.1 °F 42.1 °F 93% 30.09 in 10.0 mi Calm Calm - N/A   Clear
4:52 AM 43.0 °F 39.9 °F 89% 30.08 in 10.0 mi Calm Calm - N/A   Clear
5:14 AM 42.8 °F 39.2 °F 87% 30.07 in 9.0 mi Calm Calm - N/A   Partly Cloudy
5:52 AM 44.1 °F 41.0 °F 89% 30.07 in 10.0 mi Calm Calm - N/A   Scattered Clouds
6:26 AM 42.8 °F 39.2 °F 87% 30.06 in 1.5 mi Calm Calm - N/A   Clear
6:36 AM 42.8 °F 39.2 °F 87% 30.06 in 1.0 mi Calm Calm - N/A   Mist
6:43 AM 42.8 °F 41.0 °F 93% 30.06 in 3.0 mi Calm Calm - N/A   Mostly Cloudy
6:52 AM 43.0 °F 39.9 °F 89% 30.06 in 10.0 mi Calm Calm - N/A   Scattered Clouds
7:52 AM 45.0 °F 43.0 °F 93% 30.07 in 10.0 mi Calm Calm - N/A   Clear
8:52 AM 53.1 °F 50.0 °F 89% 30.10 in 10.0 mi Calm Calm - N/A   Clear
9:52 AM 59.0 °F 52.0 °F 78% 30.08 in 10.0 mi ENE 5.8 mph - N/A   Clear
10:52 AM 62.1 °F 52.0 °F 70% 30.06 in 10.0 mi NE 4.6 mph - N/A   Clear
11:52 AM 64.0 °F 52.0 °F 65% 30.04 in 10.0 mi NE 6.9 mph - N/A   Clear
12:52 PM 64.0 °F 51.1 °F 63% 30.03 in 10.0 mi NE 8.1 mph - N/A   Clear
1:52 PM 62.1 °F 51.1 °F 67% 30.03 in 10.0 mi NE 8.1 mph - N/A   Clear
2:52 PM 60.1 °F 50.0 °F 69% 30.02 in 10.0 mi NE 8.1 mph - N/A   Clear
3:52 PM 59.0 °F 50.0 °F 72% 30.02 in 10.0 mi NE 6.9 mph - N/A   Clear
4:52 PM 57.0 °F 48.9 °F 74% 30.02 in 10.0 mi NE 6.9 mph - N/A   Clear
5:52 PM 55.9 °F 51.1 °F 84% 30.02 in 10.0 mi NE 4.6 mph - N/A   Clear
6:52 PM 54.0 °F 50.0 °F 86% 30.02 in 10.0 mi NE 5.8 mph - N/A   Clear
7:52 PM 53.1 °F 50.0 °F 89% 30.03 in 10.0 mi NE 4.6 mph - N/A   Clear
8:52 PM 52.0 °F 50.0 °F 93% 30.02 in 10.0 mi North 3.5 mph - N/A   Clear
9:36 PM 53.6 °F 51.8 °F 94% 30.01 in 10.0 mi NE 6.9 mph - N/A   Partly Cloudy
9:52 PM 54.0 °F 51.1 °F 90% 30.01 in 10.0 mi NE 6.9 mph - N/A   Mostly Cloudy
10:52 PM 55.0 °F 52.0 °F 89% 30.01 in 10.0 mi NE 8.1 mph - N/A   Overcast
11:52 PM 54.0 °F 52.0 °F 93% 29.99 in 10.0 mi NE 8.1 mph - N/A   Mostly Cloudy